Weather History for KOFK - October, 2011

Change the Weather History Date:

Thursday, October 13, 2011

  Actual Average Record
Temperature  
Mean Temperature 58 °F 52 °F  
Max Temperature 71 °F 65 °F 90 °F (1975)
Min Temperature 44 °F 40 °F 17 °F (1909)
Degree Days  
Heating Degree Days 7 13  
Month to date heating degree days 24 143  
Since 1 July heating degree days 218 285  
Cooling Degree Days 0 0  
Month to date cooling degree days 33 8  
Year to date cooling degree days 1059 914  
Growing Degree Days 8 (Base 50)    
Moisture  
Dew Point 36 °F    
Average Humidity 50    
Maximum Humidity 77    
Minimum Humidity 23    
Precipitation  
Precipitation 0.00 in 0.07 in 0.70 in (1943)
Month to date precipitation 1.06 1.01  
Year to date precipitation 20.14 24.23  
Snow  
Snow 0.00 in 0.00 in - ()
Month to date snowfall 0.0 0.1  
Since 1 July snowfall 0.0 0.1  
Snow Depth 0.00 in    
Sea Level Pressure  
Sea Level Pressure 29.84 in    
Wind  
Wind Speed 12 mph (WNW)    
Max Wind Speed 24 mph    
Max Gust Speed 36 mph    
Visibility 10 miles    
Events      
T = Trace of Precipitation, MM = Missing Value Source: NWS Daily Summary

Daily Weather History Graph

Daily Weather History Graph

Search for Another Location

Airport or City:

Trip Planner

Search our weather history database for the weather conditions in past years. The results will help you decide how hot, cold, wet, or windy it might be!

Date:

Astronomy

Oct. 13, 2011 Rise Set
Actual Time 7:39 AM CDT 6:51 PM CDT
Civil Twilight 7:11 AM CDT 7:19 PM CDT
Nautical Twilight 6:39 AM CDT 7:52 PM CDT
Astronomical Twilight 6:06 AM CDT 8:24 PM CDT
Moon 7:25 PM CDT (10/13) 9:15 AM CDT (10/13)
Length of Visible Light 12h 08m
Length of Day
11h 12m
Full, 98% of the Moon is Illuminated
Oct 13
Full
Oct 19
Last Quarter
Oct 26
New
Nov 2
First Quarter
Nov 10
Full

Hourly Weather History & Observations

Time (CDT) Temp. Windchill Dew Point Humidity Pressure Visibility Wind Dir Wind Speed Gust Speed Precip Events Conditions
12:56 AM 50.0 °F - 41.0 °F 71% 29.84 in 10.0 mi West 9.2 mph - N/A   Clear
1:56 AM 48.9 °F - 41.0 °F 74% 29.85 in 10.0 mi West 9.2 mph - N/A   Clear
2:56 AM 48.9 °F - 39.9 °F 71% 29.85 in 10.0 mi West 11.5 mph - N/A   Clear
3:56 AM 46.9 °F - 39.0 °F 74% 29.85 in 10.0 mi West 8.1 mph - N/A   Clear
4:56 AM 46.0 °F 41.9 °F 39.0 °F 76% 29.86 in 10.0 mi West 8.1 mph - N/A   Clear
6:56 AM 45.0 °F 40.6 °F 37.0 °F 74% 29.87 in 10.0 mi West 8.1 mph - N/A   Clear
7:56 AM 45.0 °F 39.7 °F 37.0 °F 74% 29.86 in 10.0 mi West 10.4 mph - N/A   Clear
8:56 AM 48.9 °F - 37.9 °F 66% 29.88 in 10.0 mi WNW 6.9 mph - N/A   Clear
9:56 AM 54.0 °F - 39.0 °F 57% 29.88 in 10.0 mi WNW 10.4 mph - N/A   Clear
10:56 AM 61.0 °F - 39.9 °F 46% 29.87 in 10.0 mi West 9.2 mph - N/A   Clear
11:56 AM 64.9 °F - 37.9 °F 37% 29.85 in 10.0 mi West 13.8 mph 20.7 mph N/A   Clear
12:56 PM 68.0 °F - 34.0 °F 28% 29.84 in 10.0 mi WNW 18.4 mph 27.6 mph N/A   Clear
1:56 PM 70.0 °F - 33.1 °F 26% 29.81 in 10.0 mi NW 23.0 mph 31.1 mph N/A   Clear
2:56 PM 70.0 °F - 32.0 °F 25% 29.78 in 10.0 mi WNW 19.6 mph 27.6 mph N/A   Clear
3:56 PM 70.0 °F - 33.1 °F 26% 29.78 in 10.0 mi WNW 20.7 mph 27.6 mph N/A   Clear
4:56 PM 69.1 °F - 30.9 °F 24% 29.78 in 10.0 mi NW 19.6 mph - N/A   Clear
5:56 PM 66.9 °F - 32.0 °F 27% 29.80 in 10.0 mi NW 16.1 mph 24.2 mph N/A   Clear
6:56 PM 63.0 °F - 32.0 °F 31% 29.81 in 10.0 mi NW 12.7 mph - N/A   Clear
7:56 PM 55.9 °F - 34.0 °F 44% 29.84 in 10.0 mi West 8.1 mph - N/A   Clear
8:56 PM 54.0 °F - 34.0 °F 47% 29.85 in 10.0 mi West 8.1 mph - N/A   Clear
9:56 PM 53.1 °F - 34.0 °F 48% 29.85 in 10.0 mi West 8.1 mph - N/A   Clear
10:56 PM 51.1 °F - 34.0 °F 52% 29.85 in 10.0 mi West 8.1 mph - N/A   Clear
11:56 PM 50.0 °F - 34.0 °F 54% 29.84 in 10.0 mi West 11.5 mph - N/A   Clear